Location: Peebles
(55.6412°N, 3.1714°W)
Time: 00:53:28
(UTC+01:00)

deb r/b Ablestar - Pass Details

Date: 11 July 2022
Orbit: 859 x 1154 km, 67.2° (Epoch: 13 August)

Event Time Altitude Azimuth Distance (km) Brightness Sun altitude
Rises 23:17:39 0° 316° (NW) 4,013 ? -8.2°
Reaches altitude 10° 23:20:21 10° 317° (NW) 3,062 ? -8.4°
Maximum altitude 23:27:45 87° 46° (NE) 1,160 ? -8.9°
Drops below altitude 10° 23:34:59 10° 138° (SE) 2,997 ? -9.3°
Enters shadow 23:35:05 10° 138° (SE) 3,035 ? -9.3°
